Location: Observatoire
(46.1952°N, 5.3391°E)
Time: 03:57:35
(UTC+01:00)

Explorer 7 - Pass Details

Date: 19 February 2026
Orbit: 430 x 542 km, 50.2° (Epoch: 7 March)

Event Time Altitude Azimuth Distance (km) Brightness Sun altitude
Rises 18:39:43 0° 287° (WNW) 2,488 11.4 -5.8°
Reaches altitude 10° 18:41:53 10° 294° (WNW) 1,631 10.2 -6.2°
Maximum altitude 18:45:29 48° 10° (N) 640 7.0 -6.8°
Drops below altitude 10° 18:49:12 10° 86° (E) 1,698 8.6 -7.4°
Enters shadow 18:49:19 - 86° (E) 1,738 8.7 -7.4°
Sets 18:51:30 0° 92° (E) 2,603 - -7.8°
